RH
72 80 69 63 51 56 59 47 49 63 61 57 70 75 57 40 51 44 96 80 71 94 68 58 96 100 100 100 100 100 98 86 93 91 80 86 92 78 64 56 50 63 60 76 71 62 55
91 96 90 82 77 84 68 64 48 65 51 44 53 75 66 47 48 42 40 35 42 83 96 81 54 72 98 100 96 71 65 69 83 92 88 79 82 97 90 89 66 57 60 72 73 69 62
65 88 53 46 66 80 76 78 86 58 76 56 61 74 70 54 47 45 44 51 41 48 76 95 79 62 75 75 60 57 64 73 76 83 79 96 98 100 98 83 65 54 49 56 54 76 74
39 29 36 33 54 81 100 100 84 50 70 65 61 62 64 36 63 45 48 54 46 48 54 84 68 56 64 65 61 62 74 77 90 93 89 100 100 100 100 92 82 77 62 62 86 69 58
67 55 38 35 33 42 65 100 89 69 80 73 52 58 51 28 42 54 47 53 55 55 80 73 78 60 60 55 72 82 85 94 99 100 100 100 94 100 98 99 94 93 92 90 78 72 63
50 65 44 39 38 38 36 56 64 65 73 81 67 61 82 64 36 75 82 62 70 63 68 100 94 68 60 75 74 81 95 100 100 100 99 100 100 100 100 78 81 91 80 77 69 59 52
58 57 73 56 61 44 67 42 65 76 100 100 72 55 66 100 49 56 76 71 78 82 89 86 100 98 100 100 100 100 95 81 83 85 77 76 84 99 90 100 89 68 75 70 63 59 57
68 74 71 59 96 47 57 73 54 93 69 100 100 98 76 77 84 41 37 44 60 75 88 100 100 100 100 100 100 100 86 52 58 78 76 73 68 83 93 93 88 78 72 72 69 63 64
94 91 87 64 78 90 68 60 82 59 69 84 97 100 97 67 80 61 44 42 47 52 53 100 100 100 98 98 99 72 76 78 80 79 86 68 75 91 84 94 90 75 84 86 69 77 71
100 100 100 90 81 99 85 79 60 49 46 66 74 77 95 74 74 78 59 66 44 50 48 68 99 91 96 83 96 100 84 84 75 67 71 80 98 87 94 98 99 93 87 87 87 81 82
100 100 100 100 100 100 100 93 100 99 98 83 62 62 94 78 77 64 51 100 77 51 36 56 61 60 84 96 100 100 100 99 87 75 79 78 72 94 100 100 100 100 100 96 91 98 98
98 100 100 100 100 100 100 100 100 96 71 100 95 66 83 86 74 80 80 100 81 73 45 47 60 84 84 92 100 100 100 100 89 74 74 80 80 89 100 100 100 99 100 100 99 89 83
77 100 94 100 100 100 100 100 100 96 100 100 100 82 60 89 90 85 98 100 97 71 68 51 63 66 82 100 100 100 100 100 100 94 85 79 93 96 100 100 100 100 99 92 80 77 73
15 20 35 24 59 100 100 100 100 100 100 100 100 100 100 100 100 100 100 100 99 86 99 86 92 63 75 87 100 100 100 100 100 100 100 82 94 100 100 97 100 97 83 86 75 69 70
8 11 11 13 21 36 92 100 100 100 100 100 100 100 100 100 100 100 100 100 100 100 100 90 90 78 100 100 99 100 100 100 99 100 100 93 85 91 93 99 98 98 96 81 76 70 71
7 8 7 10 11 19 22 27 31 37 48 98 100 96 96 100 100 100 100 100 100 100 100 99 94 98 84 100 100 100 100 93 97 100 100 90 88 82 80 84 98 95 86 84 91 85 73
5 5 6 7 8 10 12 18 25 30 39 45 49 55 80 100 100 100 99 100 100 100 100 100 100 100 100 100 100 100 98 100 99 94 92 90 76 71 69 89 83 76 71 78 86 80 64
3 3 5 5 6 8 9 8 14 18 30 46 50 54 69 80 81 73 69 100 100 100 100 100 100 100 100 100 100 100 92 94 100 100 94 89 76 61 60 62 72 89 87 74 72 73 71
2 3 3 4 4 6 7 9 9 11 14 19 33 46 61 70 70 69 81 96 84 100 96 100 100 100 100 100 100 100 100 100 99 98 92 96 89 78 63 65 77 82 98 85 76 72 60
3 3 3 3 3 5 6 7 9 9 7 12 13 28 62 57 64 69 63 76 91 99 100 100 100 100 100 100 100 100 100 99 100 99 97 94 87 79 74 78 72 67 75 91 77 55 56
3 3 4 3 3 4 4 6 7 7 8 8 8 12 27 35 52 46 54 92 96 84 88 94 97 99 100 100 100 100 100 100 88 77 76 83 71 78 77 72 62 72 63 63 60 54 56
2 2 3 4 5 4 5 5 5 5 5 5 4 6 11 17 24 28 43 40 53 78 88 95 90 94 90 89 93 93 90 79 71 70 72 71 65 74 76 84 78 64 54 60 56 57 56
2 2 3 3 3 4 4 5 4 4 4 3 4 6 8 11 13 16 18 28 55 59 48 60 66 73 69 76 73 72 76 60 53 59 62 80 94 75 55 67 57 26 51 45 48 58 73
3 3 3 3 3 3 3 3 3 4 4 4 4 7 8 9 12 13 16 23 34 38 46 50 43 44 52 52 53 54 55 54 50 45 46 56 59 52 51 58 41 34 33 50 46 62 44
3 4 4 3 3 3 4 3 3 4 5 6 7 7 8 6 7 10 11 15 18 19 21 25 32 38 43 45 31 22 25 23 35 34 33 48 55 52 58 48 27 13 33 49 55 35 32
3 3 3 3 3 3 3 4 4 4 5 5 7 8 7 5 6 8 8 10 13 14 16 19 25 22 18 19 24 24 15 29 29 41 51 70 67 52 31 25 13 15 26 44 34 19 30
2 2 3 3 3 4 5 5 5 6 6 5 6 5 4 5 6 8 10 11 10 10 13 15 18 19 17 20 20 20 19 21 22 28 35 37 45 30 20 10 10 15 22 26 15 16 19
3 3 3 3 3 3 3 3 3 4 3 3 4 4 4 4 6 8 8 9 9 10 12 13 13 13 13 14 13 14 15 16 17 20 19 16 15 14 13 10 11 15 15 14 15 15 16
2 2 3 3 3 3 3 3 3 4 5 7 7 6 5 5 6 8 8 9 10 10 11 10 10 11 11 10 11 12 13 14 14 12 12 12 11 10 9 11 13 17 15 14 15 15 18
Wind_Speed
102 102 96 92 94 95 92 90 88 90 90 87 88 84 83 79 81 83 83 83 79 78 77 78 75 76 74 73 71 72 72 71 69 66 66 60 59 60 60 58 58 61 64 63 58 58 56
100 100 100 95 94 95 97 95 88 90 87 82 84 87 80 79 78 79 82 81 83 83 77 74 76 80 80 81 75 80 74 72 69 69 65 63 61 62 63 62 60 61 63 61 62 61 56
100 102 102 98 96 93 96 96 93 90 87 85 80 82 80 81 79 79 79 77 80 79 82 80 77 76 76 78 71 68 65 65 66 64 61 58 60 62 63 63 62 63 64 65 65 62 60
102 97 97 98 96 98 99 98 96 89 90 83 79 82 80 75 79 76 77 76 75 77 78 76 74 73 75 70 67 65 64 62 61 62 59 58 60 63 67 67 68 70 68 66 62 64 63
113 110 106 99 96 98 101 102 98 97 91 86 81 82 80 75 76 77 77 74 71 70 72 73 71 70 70 68 62 62 62 59 61 63 62 64 65 66 69 69 69 68 64 63 66 68 69
114 116 110 111 102 101 99 97 101 99 95 92 90 89 86 81 81 80 78 79 77 71 71 71 70 72 70 65 66 64 63 63 65 67 69 70 69 70 76 76 68 68 66 63 63 66 66
116 120 115 116 108 108 109 106 104 100 98 96 96 93 91 88 83 81 84 84 82 79 78 73 74 71 72 69 70 68 70 70 72 74 68 70 69 75 75 71 74 73 67 64 68 67 63
124 123 120 119 118 113 112 113 109 105 103 103 101 97 95 94 89 89 87 86 85 85 83 83 78 76 76 75 76 76 74 72 75 77 77 76 75 76 77 77 74 72 70 74 72 73 66
125 128 123 123 124 121 116 114 118 110 110 108 106 106 102 99 96 91 88 92 88 88 85 88 83 83 82 80 80 81 79 76 78 81 80 80 80 80 79 78 80 79 77 77 74 72 71
135 134 132 126 124 126 124 119 118 115 112 111 106 104 103 102 99 99 95 92 91 95 86 83 89 85 86 87 81 81 79 78 83 87 85 83 88 87 83 84 84 82 86 83 78 76 74
145 140 138 134 133 126 126 127 123 118 116 115 111 109 107 106 105 103 105 105 101 95 96 91 87 86 91 87 83 82 84 84 86 89 91 93 93 91 87 88 87 86 86 86 83 79 76
152 153 149 145 141 137 130 131 131 123 121 121 121 113 109 114 114 112 114 114 109 106 95 94 91 90 90 91 88 87 88 90 92 95 97 98 97 94 92 92 91 88 87 86 86 86 84
166 161 161 154 150 149 139 137 135 134 132 129 127 124 114 118 125 122 123 118 111 107 94 98 97 97 97 95 94 93 94 98 98 98 98 100 98 96 94 96 96 91 92 91 90 90 90
163 161 164 163 157 159 154 148 146 147 145 140 137 138 134 132 136 130 128 125 115 100 104 102 100 102 104 102 102 102 102 101 100 100 102 104 102 99 98 99 96 95 97 97 97 95 93
134 139 153 153 162 162 165 161 160 156 153 149 148 144 137 134 137 134 132 130 114 105 108 108 108 106 110 107 108 110 110 107 109 110 108 106 103 101 100 99 98 97 99 99 99 98 96
115 124 126 135 140 155 159 156 161 152 151 154 148 142 138 138 138 138 137 130 115 115 115 118 114 114 111 112 115 115 116 114 112 111 109 104 103 101 101 99 99 101 101 101 103 103 102
102 109 112 119 121 133 139 152 159 159 155 152 149 143 136 135 136 143 141 125 121 123 121 121 122 121 120 119 120 120 118 117 115 113 111 107 106 103 101 100 103 104 103 104 106 109 110
92 97 100 107 108 116 123 129 137 149 153 157 155 150 143 142 143 140 133 122 123 125 128 125 124 123 123 123 122 121 121 120 116 114 109 109 107 106 105 104 107 108 109 109 110 112 113
83 88 91 97 100 104 109 117 123 127 137 146 152 153 149 150 150 143 134 128 125 121 124 125 124 124 122 123 123 119 117 116 115 114 113 112 112 110 109 108 109 109 109 110 112 115 108
74 77 82 88 88 95 100 106 113 121 118 127 127 143 150 154 148 145 140 135 131 128 128 126 123 122 121 120 120 118 117 118 119 118 118 118 116 115 112 112 112 111 108 109 110 102 95
71 71 75 79 79 88 91 96 107 109 112 112 116 122 134 142 146 145 143 137 136 132 132 132 129 126 126 125 125 123 123 124 125 124 122 120 119 117 112 113 111 108 107 102 95 88 90
64 68 71 73 77 79 85 94 102 102 105 106 100 103 114 125 133 138 140 134 136 134 135 134 132 132 132 130 130 130 130 129 126 123 121 118 115 112 108 109 109 104 94 85 85 83 79
56 59 63 68 72 77 80 87 91 91 95 90 88 91 98 106 117 123 124 128 134 137 130 131 134 135 134 132 135 132 130 126 122 119 115 113 112 110 103 102 101 94 83 79 77 76 75
50 53 56 61 66 70 74 78 78 77 79 78 79 82 90 96 104 105 111 118 126 127 129 129 127 126 127 129 129 125 123 120 115 109 106 104 101 100 95 96 94 82 76 75 77 74 74
45 47 50 55 57 59 62 66 65 68 71 73 72 78 91 93 91 96 101 105 109 112 114 115 118 120 120 118 113 106 104 99 98 94 91 94 98 98 98 94 86 67 73 75 75 69 66
41 44 49 49 51 49 51 54 54 55 57 59 67 78 86 82 78 86 90 91 94 96 101 105 111 110 106 100 102 97 88 95 91 93 95 98 98 97 90 86 72 61 64 70 71 56 66
36 37 41 42 42 40 44 49 52 54 59 64 69 77 79 72 69 71 76 84 87 87 89 92 96 96 94 94 95 95 89 89 86 88 89 89 87 86 83 70 57 54 60 62 58 53 52
30 32 34 35 37 41 45 47 49 52 55 57 62 65 63 58 60 66 70 73 76 78 80 81 82 82 85 83 82 80 77 79 76 77 76 75 73 72 71 62 52 53 50 50 46 47 44
25 29 32 34 36 37 40 41 40 40 39 41 47 51 51 49 52 59 62 64 67 67 70 70 71 73 72 69 69 68 67 67 67 64 65 62 61 60 55 49 45 46 47 43 41 40 37
Wind_Direction
262 260 263 262 258 260 263 262 262 262 263 263 265 265 266 266 266 267 266 268 268 268 269 270 269 270 270 268 272 277 280 281 280 281 282 284 280 275 277 279 283 286 289 290 291 292 291
260 261 264 265 261 260 263 263 264 262 262 263 263 263 264 266 267 268 268 270 268 267 267 270 271 270 273 270 274 277 281 280 279 278 281 282 280 279 277 277 281 287 289 287 288 288 286
262 262 263 262 262 261 262 264 266 264 263 263 263 263 264 265 268 269 270 270 270 269 266 268 270 273 273 274 276 276 277 278 279 279 280 279 280 279 278 277 280 285 287 287 289 288 286
259 260 261 261 263 264 263 263 263 264 263 264 263 262 266 269 268 271 271 269 270 270 269 267 272 273 272 273 273 277 276 277 277 279 278 278 280 283 282 282 282 284 286 286 288 286 287
258 259 259 262 260 262 261 262 265 264 263 262 264 264 264 267 269 270 271 273 271 271 267 269 270 271 270 272 273 275 277 275 276 276 277 279 280 283 283 284 283 285 284 283 285 284 286
263 259 257 257 260 259 260 262 263 263 261 263 263 265 263 265 270 269 270 274 272 270 270 269 267 269 271 273 275 276 277 278 278 279 279 281 282 282 282 285 285 284 282 283 283 286 289
257 259 258 259 258 259 256 256 260 261 261 263 262 263 263 264 265 269 269 270 270 268 270 269 268 269 272 273 274 274 276 280 280 279 283 285 282 282 285 283 282 284 282 283 286 287 289
257 256 255 258 255 257 256 258 259 258 258 258 259 260 261 262 260 265 269 271 270 268 268 269 268 270 272 274 274 274 276 279 284 283 283 288 288 284 284 283 282 282 283 285 289 289 287
256 254 254 255 256 257 257 256 256 257 256 257 256 258 258 260 259 262 267 269 270 269 265 265 266 269 271 274 273 274 276 278 282 284 284 288 288 284 285 282 282 284 285 286 287 284 284
253 255 253 255 254 255 255 255 255 253 254 256 257 256 256 256 259 263 264 265 268 267 265 263 266 268 269 269 269 273 274 278 279 281 283 286 284 286 284 281 283 283 285 286 283 283 283
253 251 253 252 253 251 254 254 253 252 253 254 254 252 257 257 257 259 262 267 262 266 265 266 264 266 267 266 266 270 273 275 278 281 284 286 285 284 281 280 282 283 284 284 283 284 283
251 251 252 252 252 250 250 252 251 251 252 255 253 251 252 257 256 259 260 265 263 260 261 263 263 262 264 264 266 269 272 276 278 281 283 283 283 281 280 281 281 282 282 282 283 283 283
252 250 250 250 250 250 250 252 250 249 252 253 255 252 253 256 258 259 263 264 260 260 259 259 261 262 263 264 268 271 273 275 279 279 281 284 282 280 279 279 280 282 281 282 283 284 285
252 251 252 253 251 248 249 250 249 250 253 254 254 254 256 258 261 261 262 261 260 258 258 259 259 259 262 263 264 268 273 276 277 279 282 283 280 278 279 280 281 282 282 284 283 284 284
250 250 250 251 250 250 249 249 249 250 252 253 253 255 256 257 259 259 258 259 260 256 257 258 258 258 260 262 263 265 271 274 277 278 279 279 278 278 277 279 281 284 285 284 285 285 285
249 249 249 248 249 248 250 250 252 249 250 250 252 252 253 252 253 255 257 259 258 258 257 257 257 258 258 261 264 268 270 272 274 276 278 278 276 277 277 278 280 281 283 285 286 286 286
249 248 249 248 248 248 247 248 249 249 249 250 250 250 249 251 252 253 255 255 255 256 255 256 258 259 261 263 265 267 268 271 273 275 276 275 275 276 277 278 278 280 282 284 286 287 287
248 248 246 247 245 246 246 248 244 246 246 248 249 249 248 250 252 253 255 255 254 254 257 257 259 261 263 264 265 268 269 271 273 274 274 276 276 277 278 279 279 282 284 285 286 287 289
248 247 246 245 245 244 245 246 246 244 246 245 245 246 248 249 249 250 251 253 255 255 257 258 260 260 262 264 266 268 269 271 272 273 274 276 278 277 278 280 280 282 284 284 287 288 291
247 246 244 244 243 243 242 243 244 245 244 244 243 243 246 249 249 250 250 250 251 252 254 256 259 260 262 265 267 268 269 270 271 272 274 276 277 279 279 279 280 280 283 286 284 289 287
247 244 242 244 242 240 241 241 243 245 244 244 243 241 242 245 249 251 250 249 250 249 252 254 256 258 260 262 264 267 268 270 271 273 275 276 277 278 279 280 280 282 281 284 288 288 286
247 244 242 241 240 240 237 239 241 241 244 244 244 243 242 243 246 248 250 252 250 250 251 253 256 257 259 261 263 265 266 268 270 272 275 276 276 277 278 279 280 280 282 286 286 284 284
246 243 241 241 240 240 238 239 242 242 244 247 246 242 243 245 246 247 250 251 251 252 252 252 254 256 259 261 262 265 268 270 271 271 274 275 275 277 279 279 277 278 284 284 283 282 281
243 241 239 238 238 239 239 242 243 245 245 246 244 243 243 241 241 244 248 249 250 250 252 254 256 258 260 260 261 263 264 265 267 269 270 274 275 275 277 278 279 281 282 282 278 277 276
239 238 237 237 237 237 237 239 239 237 240 239 239 238 240 240 241 242 244 245 247 249 251 253 256 258 260 262 265 267 267 269 271 270 273 276 278 280 277 277 277 283 281 279 277 272 276
235 233 235 236 234 236 234 235 238 238 238 239 236 237 238 241 238 241 242 244 246 250 253 254 256 258 260 262 264 267 269 272 272 272 273 274 275 274 274 273 274 278 276 272 270 272 268
233 233 234 236 235 231 230 226 224 223 225 226 226 231 235 237 236 237 240 242 244 246 248 250 253 255 258 260 262 263 265 264 265 266 266 266 268 270 272 272 276 269 263 264 268 266 268
226 227 227 230 229 227 227 229 228 228 231 234 232 236 239 237 236 234 236 238 240 243 244 246 249 253 254 256 259 261 262 263 263 264 264 263 264 266 269 273 272 268 266 262 262 260 259
223 220 219 219 219 218 221 224 226 226 226 227 228 230 233 235 233 232 233 236 236 239 242 244 246 249 252 255 255 257 258 259 261 261 262 263 263 262 265 265 261 258 257 257 254 254 251